Regional Weather Roundup
Issued by NWS

Home | Current Version | Previous Version | Text Only | Print | Product List | Glossary On
Versions: 1 2 3 4 5 6 7 8 9 10 11 12 13 14 15 16 17 18 19 20 21 22 23 24 25 26 27 28 29 30 31 32 33 34 35 36 37 38 39 40 41 42 43 44 45 46 47 48 49 50
000
ASUS44 KFWD 290415
RWRTX
NORTH TEXAS HOURLY WEATHER ROUNDUP
NATIONAL WEATHER SERVICE FORT WORTH TX
1100 PM CDT MON JUL 28 2014

NOTE: "FAIR" INDICATES FEW OR NO CLOUDS BELOW 12,000 FEET WITH NO
SIGNIFICANT WEATHER AND/OR OBSTRUCTIONS TO VISIBILITY.

TXZ118-119-290500-
DALLAS/FORT WORTH METROPLEX

CITY           SKY/WX    TMP DP  RH WIND       PRES   REMARKS
DFW AIRPORT    PTCLDY    81  62  52 NE8       30.11R
DALLAS LOVE    PTCLDY    83  62  49 NE8       30.11R
FTW MEACHAM    CLEAR     81  63  54 N9        30.11R
DAL-EXECUTIVE  PTCLDY    84  60  44 NE7       30.11R
FTW-ALLIANCE   PTCLDY    77  63  61 N6        30.12R
FTW-NAS-JRB    PTCLDY    84  62  47 N9        30.16R
FTW-SPINKS     PTCLDY    78  63  60 CALM      30.13R
ARLINGTON      PTCLDY    84  61  45 NE12      30.11R
GRAND PRAIRIE  PTCLDY    83  61  46 N7        30.12R
ADDISON        CLEAR     82  60  46 N3        30.14R
MESQUITE       PTCLDY    78  61  55 N5        30.11R
LANCASTER      PTCLDY    77  59  53 CALM      30.11S
$$

TXZ091>094-102>105-117-120-121-131>134-290500-
NORTH CENTRAL TEXAS

CITY           SKY/WX    TMP DP  RH WIND       PRES   REMARKS
SHRMAN/DENISON CLOUDY    77  64  64 CALM      30.15R
GAINESVILLE    CLEAR     73  64  71 N5        30.16S
BOWIE          CLOUDY    72  68  89 CALM      30.17R
BRIDGEPORT     CLEAR     71  64  77 CALM      30.16S
DECATUR        CLEAR     74  62  66 NE3       30.16R
DENTON         CLEAR     75  64  68 CALM      30.13R
MCKINNEY       PTCLDY    76  64  66 N6        30.12R
ROCKWALL       PTCLDY    76  64  65 N5        30.10S
TERRELL        PTCLDY    83  59  44 N7        30.10R
WAXAHACHIE     MOCLDY    79  58  49 NE5       30.12S
CLEBURNE       PTCLDY    81  66  61 NE7       30.13S
GRANBURY       PTCLDY    82  62  51 N3        30.13S
$$

TXZ083>090-098>101-113>116-127>130-139>142-154-155-290500-
WESTERN NORTH TEXAS

CITY           SKY/WX    TMP DP  RH WIND       PRES   REMARKS
WICHITA FALLS  MOCLDY    73  68  84 CALM      30.15R
WF-KICKAPOO    PTCLDY    74  68  83 CALM      30.17R
VERNON         MOCLDY    74  69  82 CALM      30.19R
ABILENE        MOCLDY    82  64  54 NE8       30.17R
ABILENE-DYESS  PTCLDY    81  64  56 NE8       30.17R
BRECKENRIDGE   MOCLDY    80  60  49 E7        30.15R
GRAHAM         PTCLDY    74  64  70 NE5       30.15R
MINERAL WELLS  PTCLDY    78  61  55 NE6       30.12R
STEPHENVILLE   PTCLDY    79  58  47 NE7       30.17R
COMANCHE       PTCLDY    79  63  57 E3        30.14S
BROWNWOOD      MOCLDY    79  64  61 CALM      30.14R
COLEMAN        PTCLDY    80  65  59 NE5       30.15R
BRADY          CLEAR     81  66  61 E9        30.14R
$$

TXZ143>147-156>162-174-175-290500-
CENTRAL TEXAS

CITY           SKY/WX    TMP DP  RH WIND       PRES   REMARKS
WACO           MOCLDY    77  71  82 CALM      30.08S
WACO-TSTC      CLEAR     75  68  78 CALM      30.08R
WACO-MCGREGOR  PTCLDY    79  66  65 N3        30.10S
HILLSBORO      MOCLDY    76  70  82 NE3       30.10S
CORSICANA      CLOUDY    76  72  87 NE3       30.10R
MEXIA          CLOUDY    76  71  85 CALM      30.07S
HEARNE         MOCLDY   N/A N/A N/A E5        30.06S
CAMERON        MOCLDY    81  72  72 E3        30.07R
TEMPLE         PTCLDY    81  66  61 N5        30.09R
KILLEEN        PTCLDY    82  70  65 E5        30.10R
KILLEEN-SKYLRK PTCLDY    81  66  61 E6        30.10R
FORT HOOD      PTCLDY    82  69  64 CALM      30.10R
GATESVILLE     PTCLDY    79  70  73 CALM      30.13R
HAMILTON       MOCLDY    78  69  73 E7        30.14R
LAMPASAS       PTCLDY    81  70  71 NE3       30.11S
$$

TXZ095>097-106>112-122>126-135>138-148>153-164>167-290500-
EAST TEXAS

CITY           SKY/WX    TMP DP  RH WIND       PRES   REMARKS
PARIS          PTCLDY    73  61  64 N7        30.11S
SULPHUR SPRNGS CLOUDY    79  63  57 N7        30.12S
CLARKSVILLE    PTCLDY    76  64  65 N6        30.09F
MOUNT PLEASANT MOCLDY    77  66  68 N5        30.10R
GILMER         MOCLDY    79  72  78 N5        30.09S
MINEOLA        MOCLDY    77  70  78 CALM      30.10R
TYLER          MOCLDY    76  73  91 W3        30.09R
LONGVIEW       CLOUDY    75  72  90 SW3       30.06R
MARSHALL       MOCLDY    78  76  91 CALM      30.07S
ATHENS         MOCLDY    72  72 100 CALM      30.08S
JACKSONVILLE   CLOUDY    74  72  92 CALM      30.10S
HENDERSON      CLOUDY    73  72  99 SW5       30.09R FOG
NACOGDOCHES    CLOUDY    73  72  94 CALM      30.06S
LUFKIN         CLOUDY    77  73  87 CALM      30.05S
$$

SUPPLEMENTAL OBSERVATIONS (CENTRAL)

CITY           SKY/WX    TMP DP  RH WIND       PRES   REMARKS
PAT MAYSE LAKE   N/A    N/A N/A N/A N3          N/A
LAKE LIMESTONE   N/A     75  70  83 NE2         N/A
MCGREGOR         N/A     79  68  69 N2          N/A
TEMPLE           N/A     81  70  69 NE8         N/A
$$

SUPPLEMENTAL OBSERVATIONS (WEST)

CITY           SKY/WX    TMP DP  RH WIND       PRES   REMARKS
MILLERS CREEK    N/A     73  55  53 NE6         N/A
POSSUM KINGDOM   N/A     79  63  57 NE7         N/A
GRANBURY         N/A    N/A N/A N/A NE5         N/A
COMANCHE         N/A     79  63  57 E3          N/A
HAMBY            N/A     79  61  53 NE7         N/A
IVIE RESERVOIR   N/A     82  63  51 E10         N/A
COLORADO BEND    N/A     81  66  61 E8          N/A
$$

SUPPLEMENTAL OBSERVATIONS (EAST)

CITY           SKY/WX    TMP DP  RH WIND       PRES   REMARKS
CLARKSVILLE      N/A     73  64  73 N5          N/A
TEXARKANA        N/A     70  66  88 CALM        N/A
LINDEN           N/A     77  66  69 CALM        N/A
CADDO LAKE       N/A     73  70  88 NE1         N/A
GILMER           N/A     79  68  69 N3          N/A
HENDERSON        N/A     73  70  88 CALM        N/A
LUFKIN           N/A     73  72  94 MISG        N/A
N SABINE NF      N/A     73  70  88 MISG        N/A
S SABINE NF      N/A     75  73  94 SW1         N/A
$$

SUPPLEMENTAL OBSERVATIONS ARE A COLLECTION OF AUTOMATED INSTRUMENTS
THAT ARE MAINTAINED BY A VARIETY OF FEDERAL AND STATE AGENCIES.
CERTAIN ELEMENTS...SUCH AS HUMIDITY VALUES AND SUSTAINED WIND
SPEEDS...MAY BE APPROXIMATED.




USA.gov is the U.S. government's official web portal to all federal, state and local government web resources and services.